[[{"header":{"parameterUnit":"m.s-1","parameterCategory":1,"la1":30.2991,"la2":30.254,"lo1":-89.0895,"lo2":-89.0444,"dy":0.0017,"dx":0.0017,"nx":28,"ny":28,"refTime":"2024-03-19T09:00:00:Z","depth":0,"parameterNumber":2,"parameterNumberName":"U-component_of_WINDS"},"data":[0,0,0,0,0,0,0,0,0,0,0,0,0,0,0,0,0,0,0,0,0,0,0,0,0,0,0,0,0,0,0,0,0,0,0,0,0,0,0,0,0,0,0,0,0,0,0,0,0,0,0,0,0,0,0,0,0,0,3.0363,3.0364,0,3.0474,3.0475,3.0477,3.0475,3.0473,3.0472,3.047,3.0581,3.0585,3.0589,0,0,0,0,0,0,0,0,0,0,0,0,0,3.0143,3.0147,3.0363,3.0364,3.0365,3.0474,3.0476,3.0477,3.0475,3.0473,3.0472,3.047,3.0579,3.0584,3.0589,0,0,0,0,0,0,0,0,0,0,0,0,0,3.0244,3.0148,3.0362,3.0378,3.038,3.0474,3.0476,3.0477,3.0475,3.0473,3.0471,3.0469,3.0577,3.0584,3.059,3.0675,0,0,3.061,3.0613,0,0,0,0,0,0,0,0,3.0239,3.0252,3.0374,3.0377,3.038,3.0458,3.0438,3.0543,3.0476,3.0439,3.047,3.0468,3.0541,3.0551,3.0576,3.068,3.0684,3.061,3.0614,3.0617,3.0619,0,0,0,0,0,0,0,3.0232,3.0248,3.0407,3.0376,3.0379,3.0377,3.0389,3.0458,3.0501,3.0442,3.0442,3.0456,3.0543,3.057,3.0579,3.0686,3.061,3.0616,3.062,3.0623,3.086,3.0862,0,0,0,0,0,0,3.0222,3.0242,3.0403,3.041,3.0302,3.0383,3.0396,3.0435,3.0501,3.0508,3.0458,3.0455,3.056,3.0571,3.0583,3.0683,3.0617,3.0623,3.0627,3.0858,3.0861,3.0863,0,0,0,0,0,0,3.0217,3.0236,3.0399,3.0326,3.0347,3.0389,3.0433,3.0439,3.0466,3.0512,3.0519,3.0478,3.0559,3.0574,3.0651,3.0687,3.0626,3.0632,3.0855,3.0859,3.0862,3.0886,0,0,0,0,0,0,3.0211,3.0235,3.0269,3.0327,3.035,3.0467,3.0435,3.0443,3.0478,3.0476,3.0534,3.0541,3.0558,3.0642,3.0658,3.0695,3.0637,3.0852,3.0857,3.0861,3.0882,3.089,3.0897,0,0,0,0,0,3.0203,3.0271,3.0271,3.029,3.0394,3.0469,3.0482,3.0502,3.0481,3.0514,3.0543,3.0539,3.0681,3.065,3.0668,3.0707,3.085,3.0855,3.0861,3.0879,3.0888,3.0896,0,0,0,0,0,0,3.0215,3.0279,3.0279,3.0368,3.0413,3.0469,3.0511,3.0512,3.0563,3.0559,3.0581,3.0593,3.067,3.0697,3.0661,3.079,3.0762,3.0772,3.077,3.0779,3.0787,3.0777,3.0642,0,0,0,0,0,3.0228,3.0286,3.0338,3.0411,3.0434,3.0469,3.0502,3.0513,3.056,3.0579,3.0614,3.0658,3.0713,3.0748,3.0801,3.0887,3.0897,3.0922,3.093,3.0935,3.0942,3.0986,3.0997,3.0881,3.0881,3.0881,0,0,3.0256,3.0298,3.0332,3.0414,3.0451,3.0507,3.0485,3.0546,3.0587,3.0588,3.0663,3.069,3.0741,3.0822,3.0859,3.0846,3.0977,3.0942,3.0947,3.0951,3.0993,3.1004,3.1013,3.0885,3.0884,3.0884,0,0,3.0334,3.0373,3.0437,3.0473,3.0529,3.0551,3.0566,3.0622,3.064,3.0715,3.0716,3.0765,3.0859,3.0894,3.0924,3.1013,3.101,3.103,3.1067,3.1109,3.1118,3.1126,3.1155,3.1165,3.1037,3.1037,3.1038,0,3.0361,3.0447,3.0469,3.053,3.0565,3.0569,3.0632,3.0666,3.0735,3.0758,3.0743,3.0859,3.0894,3.0982,3.1003,3.1029,3.1044,3.1023,3.1116,3.1124,3.1132,3.1159,3.117,3.1039,3.1039,3.1039,3.1039,0,3.0475,3.0535,3.058,3.0647,3.0687,3.0749,3.0777,3.0815,3.0822,3.0846,3.092,3.0962,3.1022,3.1044,3.1053,3.1132,3.1122,3.1112,3.1083,3.1144,3.117,3.1181,3.1042,3.1041,3.1041,3.104,0,0,3.0564,3.0641,3.0657,3.0686,3.0747,3.0792,3.0853,3.0912,3.0942,3.099,3.1039,3.1117,3.1107,3.1141,3.1153,3.1191,3.1254,3.1175,3.1177,3.1186,3.1341,3.1346,3.1358,3.1254,3.1256,3.1258,3.1335,0,3.0646,3.0755,3.0776,3.087,3.0923,3.0927,3.0979,3.1021,3.1044,3.1091,3.1116,3.117,3.1154,3.1174,3.1212,3.1239,3.1285,3.1234,3.1297,3.1299,3.1281,3.1373,3.1379,3.1451,3.1346,3.1348,3.1349,0,3.0757,3.0807,3.0906,3.0956,3.098,3.1027,3.1081,3.1127,3.1173,3.1187,3.1224,3.1231,3.1292,3.1262,3.1344,3.1308,3.1335,3.1352,3.1355,3.136,3.1326,3.1376,3.1474,3.1484,3.1366,3.1365,3.1363,0,3.0807,3.0899,3.097,3.0995,3.1057,3.1089,3.1116,3.116,3.1193,3.124,3.1261,3.1315,3.1343,3.1383,3.1404,3.1381,3.1483,3.1456,3.1493,3.1492,3.1512,3.151,3.1613,3.1535,3.1535,3.1534,3.1534,0,3.0895,3.0955,3.0993,3.1036,3.1102,3.1124,3.1188,3.1214,3.1253,3.1299,3.1306,3.1349,3.1375,3.1421,3.1437,3.15,3.1514,3.1524,3.1527,3.1522,3.152,3.1538,3.1533,3.1537,3.1537,3.1536,3.1536,0,3.0962,3.099,3.1066,3.1118,3.1133,3.1179,3.1222,3.1263,3.1285,3.1344,3.1358,3.1394,3.1448,3.1473,3.154,3.1551,3.1621,3.1623,3.1606,3.1606,3.1641,3.1636,3.1756,3.1772,3.1686,3.1687,3.1687,0,3.1015,3.106,3.1117,3.1149,3.1177,3.1228,3.1262,3.1285,3.1319,3.1374,3.1407,3.1462,3.1507,3.1592,3.1623,3.1673,3.1674,3.1712,3.1681,3.1673,3.167,3.1666,3.1669,3.1717,3.1718,3.1719,3.1719,0,3.1104,3.1115,3.1165,3.1218,3.1258,3.1301,3.1343,3.1369,3.1398,3.1436,3.1491,3.1526,3.1594,3.1647,3.1699,3.1725,3.1726,3.1729,3.174,3.1733,3.172,3.1724,3.1618,3.1726,3.1725,3.1724,3.1724,3.1724,3.1164,3.1203,3.1248,3.1302,3.1336,3.1375,3.1414,3.1442,3.1489,3.1547,3.1557,3.1615,3.1657,3.1728,3.1755,3.1799,3.179,3.1806,3.181,3.1813,3.1813,3.1716,3.1809,3.1809,3.1809,3.1809,3.1809,0,3.1251,3.128,3.1329,3.1387,3.1428,3.1428,3.1473,3.1507,3.1559,3.1599,3.1642,3.1705,3.1756,3.179,3.1841,3.1869,3.1871,3.1882,3.1878,3.1883,3.182,3.1804,3.1879,3.1879,3.1879,3.1879,3.1879,3.1879,3.1301,3.1367,3.1383,3.1465,3.1493,3.1551,3.1576,3.1611,3.1642,3.1712,3.1754,3.1777,3.1813,3.1866,3.1912,3.1921,3.1937,3.1948,3.1956,3.1896,3.1888,3.1881,3.1866,3.1953,3.1953,3.2015,3.2015,3.2016]},{"header":{"parameterUnit":"m.s-1","parameterCategory":1,"la1":30.2991,"la2":30.254,"lo1":-89.0895,"lo2":-89.0444,"dy":0.0017,"dx":0.0017,"nx":28,"ny":28,"refTime":"2024-03-19T09:00:00:Z","depth":0,"parameterNumber":3,"parameterNumberName":"V-component_of_WINDS"},"data":[0,0,0,0,0,0,0,0,0,0,0,0,0,0,0,0,0,0,0,0,0,0,0,0,0,0,0,0,0,0,0,0,0,0,0,0,0,0,0,0,0,0,0,0,0,0,0,0,0,0,0,0,0,0,0,0,0,0,0.619,0.619,0,0.62,0.62,0.6201,0.618,0.6179,0.6179,0.6178,0.619,0.6191,0.6192,0,0,0,0,0,0,0,0,0,0,0,0,0,0.6153,0.6154,0.619,0.619,0.619,0.62,0.62,0.6201,0.618,0.6179,0.6178,0.6178,0.619,0.6191,0.6192,0,0,0,0,0,0,0,0,0,0,0,0,0,0.6167,0.6154,0.619,0.6181,0.618,0.62,0.62,0.6201,0.618,0.6179,0.6178,0.6177,0.6189,0.6191,0.6192,0.6222,0,0,0.6197,0.6197,0,0,0,0,0,0,0,0,0.6166,0.6168,0.6182,0.6182,0.6181,0.6188,0.6192,0.6208,0.6181,0.618,0.6178,0.6177,0.619,0.6192,0.6196,0.6222,0.6223,0.6197,0.6198,0.6198,0.6199,0,0,0,0,0,0,0,0.6165,0.6168,0.6194,0.6183,0.6182,0.6177,0.6178,0.6195,0.6191,0.618,0.6179,0.618,0.619,0.6195,0.6196,0.6223,0.6197,0.6198,0.6199,0.62,0.6272,0.6273,0,0,0,0,0,0,0.6165,0.6167,0.6194,0.6194,0.6171,0.6178,0.6179,0.6187,0.6191,0.619,0.6181,0.6179,0.6193,0.6194,0.6196,0.623,0.6198,0.62,0.6201,0.6271,0.6273,0.6274,0,0,0,0,0,0,0.6164,0.6168,0.6193,0.618,0.6183,0.618,0.6189,0.6187,0.6192,0.6191,0.6191,0.6187,0.6192,0.6194,0.6215,0.623,0.62,0.6202,0.627,0.6272,0.6273,0.6299,0,0,0,0,0,0,0.6163,0.6168,0.6179,0.6181,0.6184,0.6212,0.6189,0.6188,0.6194,0.6192,0.6196,0.6196,0.6191,0.6213,0.6217,0.6232,0.6203,0.6269,0.6271,0.6273,0.6297,0.6301,0.6305,0,0,0,0,0,0.6162,0.6186,0.6179,0.6183,0.6198,0.6213,0.6215,0.6208,0.6196,0.6207,0.6206,0.6196,0.6228,0.6215,0.6219,0.6235,0.6268,0.627,0.6272,0.6295,0.63,0.6305,0,0,0,0,0,0,0.6188,0.6187,0.6179,0.6204,0.6209,0.6209,0.6224,0.6215,0.6223,0.6221,0.6213,0.6214,0.6236,0.6237,0.6223,0.6263,0.6246,0.6249,0.6261,0.6266,0.6271,0.627,0.6204,0,0,0,0,0,0.6196,0.6208,0.6206,0.6229,0.6231,0.6227,0.6233,0.6228,0.6232,0.6234,0.6235,0.624,0.6251,0.6259,0.6269,0.6296,0.6296,0.6309,0.6313,0.6316,0.632,0.6333,0.6338,0.6282,0.6282,0.6281,0,0,0.6214,0.6215,0.6223,0.6234,0.6237,0.6249,0.6229,0.6244,0.6253,0.6237,0.6256,0.6257,0.6262,0.6285,0.6296,0.6287,0.6335,0.6319,0.6322,0.6324,0.6336,0.6341,0.6346,0.6283,0.6283,0.6283,0,0,0.6253,0.6255,0.6273,0.6276,0.628,0.6276,0.6281,0.6282,0.6282,0.6301,0.6288,0.6299,0.6319,0.6322,0.6327,0.6365,0.6355,0.6368,0.639,0.6404,0.6408,0.6412,0.6425,0.643,0.6371,0.6371,0.6371,0,0.6275,0.6293,0.6284,0.6299,0.6304,0.6288,0.6307,0.631,0.6317,0.6321,0.6311,0.6334,0.6336,0.636,0.6369,0.6374,0.6378,0.6368,0.6408,0.6412,0.6415,0.6428,0.6433,0.6373,0.6373,0.6372,0.6372,0,0.632,0.6332,0.6347,0.6353,0.6359,0.6376,0.6369,0.6377,0.637,0.6368,0.6386,0.6388,0.6398,0.6403,0.6397,0.6426,0.642,0.6409,0.6392,0.6422,0.6434,0.6439,0.6375,0.6374,0.6374,0.6374,0,0,0.6377,0.6376,0.6382,0.6384,0.6386,0.6395,0.6411,0.6419,0.6426,0.6431,0.6443,0.6459,0.6448,0.6453,0.6447,0.6459,0.6488,0.6446,0.6446,0.6454,0.6519,0.6527,0.6533,0.6481,0.6482,0.6483,0.6518,0,0.6415,0.6441,0.6433,0.6459,0.647,0.6455,0.6468,0.6471,0.6468,0.6477,0.6475,0.6486,0.6471,0.6473,0.6484,0.6482,0.6501,0.6479,0.6493,0.6494,0.6493,0.6539,0.6549,0.6582,0.6523,0.6524,0.6524,0,0.6464,0.647,0.6497,0.6495,0.65,0.6512,0.6518,0.6527,0.6529,0.6527,0.6531,0.6522,0.6537,0.6519,0.6539,0.6524,0.6529,0.6528,0.653,0.6531,0.6511,0.6542,0.6593,0.6598,0.6531,0.6531,0.653,0,0.6503,0.6517,0.6535,0.6537,0.6536,0.6545,0.6545,0.6546,0.6551,0.6556,0.6559,0.6567,0.6571,0.6577,0.657,0.6557,0.6591,0.6572,0.6589,0.6589,0.6597,0.6597,0.665,0.66,0.66,0.66,0.66,0,0.6547,0.6564,0.6552,0.6563,0.6582,0.6571,0.659,0.6588,0.6589,0.6599,0.6586,0.6596,0.6586,0.6595,0.6589,0.6606,0.6608,0.6606,0.6605,0.6608,0.6608,0.6611,0.6609,0.6601,0.6601,0.66,0.66,0,0.6594,0.6586,0.6605,0.6601,0.6601,0.6614,0.6612,0.6622,0.6617,0.663,0.6633,0.6626,0.6636,0.6629,0.6639,0.6635,0.6658,0.6653,0.6657,0.6656,0.6673,0.6671,0.673,0.6736,0.6682,0.6683,0.6683,0,0.6623,0.6635,0.6633,0.6638,0.6639,0.6648,0.6652,0.6642,0.6647,0.665,0.6659,0.6667,0.6674,0.669,0.6686,0.6693,0.6688,0.6708,0.669,0.6692,0.6688,0.6688,0.6689,0.6712,0.6713,0.6714,0.6714,0,0.6675,0.667,0.6677,0.6682,0.6687,0.6691,0.6694,0.6699,0.6688,0.6695,0.6704,0.6709,0.6718,0.6726,0.6731,0.6731,0.6721,0.672,0.6724,0.6727,0.6729,0.6728,0.6667,0.6719,0.6718,0.6718,0.6718,0.6717,0.6713,0.6723,0.6723,0.673,0.6731,0.6733,0.6742,0.6738,0.6745,0.6751,0.6744,0.6755,0.6756,0.6762,0.6763,0.6771,0.6763,0.6769,0.6771,0.6772,0.6775,0.6727,0.6772,0.6772,0.6772,0.6771,0.6771,0,0.6764,0.6763,0.677,0.6773,0.6779,0.6767,0.6769,0.6775,0.6784,0.6785,0.6791,0.68,0.6808,0.6804,0.681,0.6817,0.6813,0.6819,0.6819,0.6819,0.6782,0.6777,0.6823,0.6823,0.6823,0.6823,0.6823,0.6823,0.6792,0.6808,0.6802,0.6818,0.6816,0.6826,0.6828,0.683,0.683,0.6841,0.6847,0.6844,0.6843,0.6848,0.6854,0.6853,0.6856,0.6864,0.6861,0.6827,0.6822,0.6817,0.6813,0.6865,0.6865,0.6898,0.6898,0.6898]}]]